CELESTIS-03

Last updated on Oct. 27, 2021, 12:03 a.m. UTC

1 26034U 99070C   21299.40145668  .00005511  00000-0  31674-3 0  9993
2 26034  98.3016 278.6647 0010928 196.1912 163.8969 15.12926160185631
UTC
Height (km)
Latitude
Longitude
Inclination
Orbital Period
UTC large
Height (km)
Speed (km/s)
/
Latitude / Longitude
Inclination (degrees)
Orbital Period (minutes)
Azimuth
Elevation
Range (km)
Doppler Factor
iOS Compass Heading
iOS Angle